Location: Unspecified
(0.0000°N, 0.0000°E)
Time: 09:45:07
(UTC+00:00)

ISS - Visible Passes

Search period start: 26 April 2017 00:00
Search period end: 06 May 2017 00:00
Orbit: 400 x 409 km, 51.6° (Epoch: 26 April)

Date Brightness Start Highest point End Pass type
(mag) Time Alt. Az. Time Alt. Az. Time Alt. Az.
26 Apr -1.4 04:48:35 10° S 04:51:04 20° SE 04:53:32 10° ENE visible
27 Apr -2.8 05:32:09 10° WSW 05:35:05 30° NW 05:38:00 10° N visible
28 Apr -3.9 04:42:10 53° SSW 04:42:50 85° SE 04:46:04 10° NE visible
29 Apr -0.6 03:52:45 14° ENE 03:52:45 14° ENE 03:53:24 10° ENE visible
30 Apr -1.7 04:35:55 17° NNW 04:35:55 17° NNW 04:37:08 10° N visible
